User: anonymous   Login
Location: Unspecified
(0.0000°N, 0.0000°E)
Time: 10:25:01
(UTC+02:00)
Language:

SJ-6B - Orbit

View from above orbital plane
View from above orbital plane
View from above satellite
View from above satellite

Ground track
Ground track

The orbit data is extracted from the following two-line orbital elements,

1 28415U 04035C   16272.04642239  .00000395  00000-0  31074-4 0  9996
2 28415  97.7724 293.5169 0051163 291.2524  68.3243 15.05880498659121
Epoch (UTC): 28 September 2016 01:06:50
Eccentricity: 0.0051163
inclination: 97.7724°
perigee height: 513 km
apogee height: 584 km
right ascension of ascending node: 293.5169°
argument of perigee: 291.2524°
revolutions per day: 15.05880498
mean anomaly at epoch: 68.3243°
orbit number at epoch: 65912

The dashed part of the orbit path shows where the satellite is in the earth's shadow,  

DLR